| time (UTC) | temp C | wind direction | speed KPH | gust KPH | rain 1hr cm | rain 24hr cm | rain mn cm | humidity % | barometer mb |
| 20260504003527 | 15 | 0 | 1.6 | 6.4 | 0.00 | 0.00 | 0.00 | 48 | 1013.6 |
| 20260504003045 | 15 | 179 | 1.6 | 6.4 | 0.00 | 0.00 | 0.00 | 47 | 1013.6 |
| 20260504002527 | 16 | 195 | 0.0 | 9.7 | 0.00 | 0.00 | 0.00 | 46 | 1013.5 |
| 20260504002027 | 16 | 195 | 1.6 | 9.7 | 0.00 | 0.00 | 0.00 | 46 | 1013.5 |
| 20260504001544 | 16 | 0 | 0.0 | 6.4 | 0.00 | 0.00 | 0.00 | 45 | 1013.6 |
| 20260504001027 | 16 | 0 | 0.0 | 6.4 | 0.00 | 0.00 | 0.00 | 44 | 1013.5 |
| 20260504000527 | 16 | 0 | 0.0 | 9.7 | 0.00 | 0.00 | 0.00 | 44 | 1013.3 |
| 20260504000046 | 17 | 0 | 1.6 | 9.7 | 0.00 | 0.00 | 0.00 | 43 | 1013.3 |
| 20260503235529 | 17 | 184 | 1.6 | 9.7 | 0.00 | 0.00 | 0.00 | 43 | 1013.4 |
| 20260503235027 | 17 | 0 | 0.0 | 11.3 | 0.00 | 0.00 | 0.00 | 42 | 1013.4 |
| 20260503234542 | 17 | 217 | 0.0 | 11.3 | 0.00 | 0.00 | 0.00 | 41 | 1013.4 |
| 20260503234029 | 17 | 241 | 4.8 | 14.5 | 0.00 | 0.00 | 0.00 | 42 | 1013.4 |
| 20260503233529 | 17 | 0 | 3.2 | 19.3 | 0.00 | 0.00 | 0.00 | 42 | 1013.4 |
| 20260503233047 | 17 | 0 | 3.2 | 19.3 | 0.00 | 0.00 | 0.00 | 41 | 1013.4 |
| 20260503232527 | 18 | 146 | 3.2 | 11.3 | 0.00 | 0.00 | 0.00 | 41 | 1013.5 |
| 20260503232027 | 18 | 0 | 1.6 | 17.7 | 0.00 | 0.00 | 0.00 | 40 | 1013.5 |
| 20260503231549 | 17 | 253 | 3.2 | 19.3 | 0.00 | 0.00 | 0.00 | 40 | 1013.6 |
| 20260503231028 | 17 | 166 | 1.6 | 19.3 | 0.00 | 0.00 | 0.00 | 40 | 1013.6 |
| 20260503230528 | 17 | 221 | 4.8 | 19.3 | 0.00 | 0.00 | 0.00 | 39 | 1013.8 |
| 20260503230052 | 17 | 243 | 3.2 | 14.5 | 0.00 | 0.00 | 0.00 | 38 | 1013.8 |
| 20260503225527 | 17 | 246 | 3.2 | 12.9 | 0.00 | 0.00 | 0.00 | 39 | 1014.0 |
| 20260503225027 | 17 | 222 | 1.6 | 9.7 | 0.00 | 0.00 | 0.00 | 39 | 1014.1 |
| 20260503224541 | 17 | 0 | 0.0 | 16.1 | 0.00 | 0.00 | 0.00 | 40 | 1014.3 |
| 20260503224027 | 17 | 94 | 0.0 | 16.1 | 0.00 | 0.00 | 0.00 | 39 | 1014.3 |
| 20260503223530 | 17 | 131 | 4.8 | 16.1 | 0.00 | 0.00 | 0.00 | 39 | 1014.4 |
| 20260503223043 | 18 | 0 | 0.0 | 16.1 | 0.00 | 0.00 | 0.00 | 39 | 1014.5 |
| 20260503222527 | 18 | 186 | 1.6 | 16.1 | 0.00 | 0.00 | 0.00 | 38 | 1014.7 |
| 20260503222029 | 18 | 239 | 4.8 | 20.9 | 0.00 | 0.00 | 0.00 | 35 | 1014.8 |
| 20260503221551 | 18 | 233 | 4.8 | 20.9 | 0.00 | 0.00 | 0.00 | 36 | 1014.6 |
| 20260503221027 | 18 | 9 | 1.6 | 20.9 | 0.00 | 0.00 | 0.00 | 36 | 1014.4 |
| 20260503220531 | 18 | 0 | 1.6 | 9.7 | 0.00 | 0.00 | 0.00 | 36 | 1014.4 |
| 20260503220047 | 18 | 187 | 1.6 | 11.3 | 0.00 | 0.00 | 0.00 | 36 | 1014.8 |
| 20260503215532 | 18 | 147 | 3.2 | 12.9 | 0.00 | 0.00 | 0.00 | 34 | 1015.0 |
| 20260503215031 | 18 | 312 | 0.0 | 16.1 | 0.00 | 0.00 | 0.00 | 35 | 1015.1 |
| 20260503214544 | 18 | 88 | 3.2 | 16.1 | 0.00 | 0.00 | 0.00 | 35 | 1015.0 |
| 20260503214033 | 18 | 0 | 4.8 | 16.1 | 0.00 | 0.00 | 0.00 | 35 | 1015.2 |
| 20260503213531 | 18 | 75 | 3.2 | 16.1 | 0.00 | 0.00 | 0.00 | 37 | 1015.4 |
| 20260503213059 | 18 | 0 | 3.2 | 19.3 | 0.00 | 0.00 | 0.00 | 36 | 1015.5 |
| 20260503212530 | 18 | 56 | 1.6 | 19.3 | 0.00 | 0.00 | 0.00 | 36 | 1015.6 |
| 20260503212032 | 18 | 133 | 1.6 | 11.3 | 0.00 | 0.00 | 0.00 | 35 | 1015.5 |
| 20260503211542 | 18 | 323 | 1.6 | 14.5 | 0.00 | 0.00 | 0.00 | 34 | 1015.4 |
| 20260503211031 | 18 | 143 | 1.6 | 14.5 | 0.00 | 0.00 | 0.00 | 36 | 1015.4 |
| 20260503210533 | 17 | 0 | 6.4 | 27.4 | 0.00 | 0.00 | 0.00 | 34 | 1015.2 |
| 20260503210055 | 18 | 71 | 4.8 | 27.4 | 0.00 | 0.00 | 0.00 | 35 | 1015.5 |
| 20260503205529 | 17 | 152 | 9.7 | 27.4 | 0.00 | 0.00 | 0.00 | 35 | 1015.6 |
| 20260503205029 | 18 | 221 | 1.6 | 12.9 | 0.00 | 0.00 | 0.00 | 37 | 1015.8 |
| 20260503204552 | 17 | 0 | 1.6 | 14.5 | 0.00 | 0.00 | 0.00 | 35 | 1015.7 |
| 20260503204031 | 17 | 81 | 4.8 | 14.5 | 0.00 | 0.00 | 0.00 | 36 | 1015.8 |
| 20260503203531 | 18 | 285 | 3.2 | 14.5 | 0.00 | 0.00 | 0.00 | 34 | 1015.8 |
| 20260503203043 | 18 | 194 | 1.6 | 14.5 | 0.00 | 0.00 | 0.00 | 34 | 1016.0 |
| 20260503202532 | 18 | 250 | 3.2 | 14.5 | 0.00 | 0.00 | 0.00 | 35 | 1016.0 |
| 20260503202029 | 18 | 258 | 1.6 | 8.0 | 0.00 | 0.00 | 0.00 | 34 | 1016.0 |
| 20260503201542 | 18 | 157 | 3.2 | 14.5 | 0.00 | 0.00 | 0.00 | 34 | 1016.2 |
| 20260503201031 | 18 | 0 | 3.2 | 14.5 | 0.00 | 0.00 | 0.00 | 35 | 1016.3 |
| 20260503200529 | 18 | 150 | 1.6 | 12.9 | 0.00 | 0.00 | 0.00 | 34 | 1016.2 |
| 20260503200044 | 17 | 314 | 3.2 | 12.9 | 0.00 | 0.00 | 0.00 | 33 | 1016.4 |
| 20260503195529 | 17 | 0 | 1.6 | 12.9 | 0.00 | 0.00 | 0.00 | 36 | 1016.6 |
| 20260503195031 | 17 | 127 | 3.2 | 9.7 | 0.00 | 0.00 | 0.00 | 34 | 1016.8 |
| 20260503194547 | 18 | 264 | 0.0 | 11.3 | 0.00 | 0.00 | 0.00 | 34 | 1017.0 |
| 20260503194029 | 17 | 46 | 3.2 | 12.9 | 0.00 | 0.00 | 0.00 | 35 | 1017.1 |
| 20260503193529 | 17 | 231 | 3.2 | 12.9 | 0.00 | 0.00 | 0.00 | 32 | 1017.3 |
| 20260503193053 | 17 | 36 | 3.2 | 17.7 | 0.00 | 0.00 | 0.00 | 36 | 1017.5 |
| 20260503192531 | 17 | 276 | 3.2 | 17.7 | 0.00 | 0.00 | 0.00 | 34 | 1017.7 |
| 20260503192031 | 17 | 145 | 8.0 | 17.7 | 0.00 | 0.00 | 0.00 | 34 | 1017.6 |
| 20260503191544 | 17 | 134 | 8.0 | 17.7 | 0.00 | 0.00 | 0.00 | 34 | 1017.7 |
| 20260503191028 | 17 | 108 | 3.2 | 11.3 | 0.00 | 0.00 | 0.00 | 33 | 1017.7 |
| 20260503190532 | 17 | 131 | 1.6 | 11.3 | 0.00 | 0.00 | 0.00 | 33 | 1017.7 |
| 20260503190043 | 17 | 207 | 1.6 | 24.1 | 0.00 | 0.00 | 0.00 | 37 | 1017.9 |
| 20260503185531 | 17 | 248 | 1.6 | 24.1 | 0.00 | 0.00 | 0.00 | 34 | 1018.1 |
| 20260503185028 | 17 | 212 | 1.6 | 9.7 | 0.00 | 0.00 | 0.00 | 33 | 1018.1 |
| 20260503184552 | 17 | 48 | 3.2 | 11.3 | 0.00 | 0.00 | 0.00 | 36 | 1018.1 |
| 20260503184031 | 17 | 176 | 3.2 | 12.9 | 0.00 | 0.00 | 0.00 | 34 | 1018.3 |
| 20260503183532 | 16 | 50 | 3.2 | 14.5 | 0.00 | 0.00 | 0.00 | 36 | 1018.3 |
| 20260503183102 | 16 | 181 | 8.0 | 14.5 | 0.00 | 0.00 | 0.00 | 33 | 1018.4 |
| 20260503182528 | 17 | 191 | 1.6 | 19.3 | 0.00 | 0.00 | 0.00 | 33 | 1018.4 |
| 20260503182030 | 16 | 143 | 4.8 | 19.3 | 0.00 | 0.00 | 0.00 | 37 | 1018.4 |
| 20260503181547 | 17 | 148 | 1.6 | 8.0 | 0.00 | 0.00 | 0.00 | 34 | 1018.5 |
| 20260503181029 | 17 | 210 | 3.2 | 11.3 | 0.00 | 0.00 | 0.00 | 35 | 1018.6 |
| 20260503180529 | 16 | 179 | 1.6 | 12.9 | 0.00 | 0.00 | 0.00 | 34 | 1018.6 |
| 20260503180047 | 16 | 294 | 4.8 | 19.3 | 0.00 | 0.00 | 0.00 | 36 | 1018.7 |
| 20260503175532 | 16 | 151 | 4.8 | 19.3 | 0.00 | 0.00 | 0.00 | 36 | 1018.6 |
| 20260503175031 | 16 | 191 | 0.0 | 24.1 | 0.00 | 0.00 | 0.00 | 36 | 1018.8 |
| 20260503174544 | 16 | 272 | 11.3 | 24.1 | 0.00 | 0.00 | 0.00 | 36 | 1018.7 |
| 20260503174032 | 16 | 155 | 0.0 | 20.9 | 0.00 | 0.00 | 0.00 | 37 | 1018.7 |
| 20260503173532 | 16 | 188 | 8.0 | 20.9 | 0.00 | 0.00 | 0.00 | 37 | 1018.9 |
| 20260503173112 | 16 | 224 | 6.4 | 17.7 | 0.00 | 0.00 | 0.00 | 35 | 1019.1 |
| 20260503172535 | 16 | 225 | 4.8 | 11.3 | 0.00 | 0.00 | 0.00 | 33 | 1019.2 |
| 20260503172031 | 16 | 203 | 1.6 | 20.9 | 0.00 | 0.00 | 0.00 | 36 | 1019.3 |
| 20260503171549 | 15 | 161 | 1.6 | 20.9 | 0.00 | 0.00 | 0.00 | 37 | 1019.5 |
| 20260503171029 | 15 | 58 | 9.7 | 20.9 | 0.00 | 0.00 | 0.00 | 36 | 1019.6 |
| 20260503170529 | 15 | 101 | 3.2 | 19.3 | 0.00 | 0.00 | 0.00 | 35 | 1019.6 |
| 20260503150529 | 13 | 212 | 6.4 | 14.5 | 0.00 | 0.00 | 0.00 | 45 | 1020.8 |
| 20260503131028 | 10 | 146 | 1.6 | 11.3 | 0.00 | 0.00 | 0.00 | 59 | 1020.9 |
| 20260503130528 | 9 | 162 | 3.2 | 11.3 | 0.00 | 0.00 | 0.00 | 60 | 1020.7 |
| 20260503110528 | 3 | 196 | 1.6 | 6.4 | 0.00 | 0.00 | 0.00 | 79 | 1019.9 |
| 20260503081547 | 2 | 0 | 0.0 | 1.6 | 0.00 | 0.00 | 0.00 | 86 | 1019.4 |
| 20260503081031 | 2 | 0 | 0.0 | 1.6 | 0.00 | 0.00 | 0.00 | 86 | 1019.5 |
| 20260503080529 | 2 | 0 | 0.0 | 0.0 | 0.00 | 0.00 | 0.00 | 86 | 1019.5 |
| 20260503072529 | 2 | 0 | 0.0 | 0.0 | 0.00 | 0.00 | 0.00 | 86 | 1019.1 |
| 20260503072031 | 2 | 0 | 0.0 | 1.6 | 0.00 | 0.00 | 0.00 | 85 | 1019.1 |
| 20260503071548 | 2 | 0 | 0.0 | 1.6 | 0.00 | 0.00 | 0.00 | 85 | 1019.1 |
| 20260503071031 | 2 | 138 | 0.0 | 1.6 | 0.00 | 0.00 | 0.00 | 85 | 1019.2 |
| 20260503070530 | 2 | 0 | 0.0 | 0.0 | 0.00 | 0.00 | 0.00 | 87 | 1019.2 |
| 20260503055029 | 2 | 0 | 0.0 | 0.0 | 0.00 | 0.00 | 0.00 | 83 | 1019.4 |
| 20260503054545 | 3 | 0 | 0.0 | 0.0 | 0.00 | 0.00 | 0.00 | 83 | 1019.4 |
| 20260503054035 | 3 | 0 | 0.0 | 0.0 | 0.00 | 0.00 | 0.00 | 83 | 1019.4 |
| 20260503053533 | 3 | 0 | 0.0 | 0.0 | 0.00 | 0.00 | 0.00 | 83 | 1019.4 |
| 20260503053045 | 3 | 0 | 0.0 | 0.0 | 0.00 | 0.00 | 0.00 | 82 | 1019.3 |
| 20260503052531 | 3 | 0 | 0.0 | 1.6 | 0.00 | 0.00 | 0.00 | 81 | 1019.3 |
| 20260503052031 | 4 | 0 | 0.0 | 1.6 | 0.00 | 0.00 | 0.00 | 81 | 1019.3 |
| 20260503051545 | 4 | 0 | 0.0 | 1.6 | 0.00 | 0.00 | 0.00 | 80 | 1019.2 |
| 20260503051030 | 4 | 0 | 0.0 | 0.0 | 0.00 | 0.00 | 0.00 | 80 | 1019.3 |
| 20260503050530 | 4 | 0 | 0.0 | 0.0 | 0.00 | 0.00 | 0.00 | 81 | 1019.3 |
| 20260503050045 | 4 | 0 | 0.0 | 0.0 | 0.00 | 0.00 | 0.00 | 80 | 1019.5 |
| 20260503045528 | 4 | 0 | 0.0 | 0.0 | 0.00 | 0.00 | 0.00 | 81 | 1019.4 |
| 20260503045029 | 5 | 0 | 0.0 | 0.0 | 0.00 | 0.00 | 0.00 | 80 | 1019.5 |
| 20260503044542 | 5 | 0 | 0.0 | 0.0 | 0.00 | 0.00 | 0.00 | 79 | 1019.3 |
| 20260503044030 | 5 | 0 | 0.0 | 0.0 | 0.00 | 0.00 | 0.00 | 78 | 1019.4 |
| 20260503043530 | 5 | 0 | 0.0 | 0.0 | 0.00 | 0.00 | 0.00 | 78 | 1019.3 |
| 20260503043043 | 5 | 0 | 0.0 | 0.0 | 0.00 | 0.00 | 0.00 | 77 | 1019.3 |
| 20260503042528 | 5 | 0 | 0.0 | 0.0 | 0.00 | 0.00 | 0.00 | 78 | 1019.3 |
| 20260503042028 | 5 | 0 | 0.0 | 0.0 | 0.00 | 0.00 | 0.00 | 76 | 1019.3 |
| 20260503041553 | 6 | 0 | 0.0 | 0.0 | 0.00 | 0.00 | 0.00 | 76 | 1019.4 |
| 20260503041031 | 6 | 0 | 0.0 | 0.0 | 0.00 | 0.00 | 0.00 | 75 | 1019.3 |
| 20260503040530 | 6 | 0 | 0.0 | 0.0 | 0.00 | 0.00 | 0.00 | 75 | 1019.2 |
| 20260503040055 | 6 | 0 | 0.0 | 0.0 | 0.00 | 0.00 | 0.00 | 74 | 1019.4 |
| 20260503035528 | 6 | 0 | 0.0 | 0.0 | 0.00 | 0.00 | 0.00 | 71 | 1019.3 |
| 20260503035028 | 6 | 0 | 0.0 | 0.0 | 0.00 | 0.00 | 0.00 | 70 | 1019.2 |
| 20260503034559 | 6 | 0 | 0.0 | 0.0 | 0.00 | 0.00 | 0.00 | 71 | 1019.4 |
| 20260503034028 | 7 | 0 | 0.0 | 0.0 | 0.00 | 0.00 | 0.00 | 67 | 1019.3 |
| 20260503033528 | 7 | 0 | 0.0 | 1.6 | 0.00 | 0.00 | 0.00 | 66 | 1019.2 |
| 20260503033045 | 7 | 0 | 0.0 | 1.6 | 0.00 | 0.00 | 0.00 | 65 | 1019.2 |
| 20260503032528 | 7 | 0 | 0.0 | 0.0 | 0.00 | 0.00 | 0.00 | 66 | 1019.1 |
| 20260503032028 | 7 | 0 | 0.0 | 0.0 | 0.00 | 0.00 | 0.00 | 66 | 1019.1 |
| 20260503031544 | 7 | 0 | 0.0 | 0.0 | 0.00 | 0.00 | 0.00 | 66 | 1018.9 |
| 20260503031028 | 7 | 0 | 0.0 | 1.6 | 0.00 | 0.00 | 0.00 | 66 | 1019.1 |
| 20260503030527 | 8 | 0 | 0.0 | 1.6 | 0.00 | 0.00 | 0.00 | 63 | 1019.1 |
| 20260503030053 | 8 | 79 | 0.0 | 0.0 | 0.00 | 0.00 | 0.00 | 63 | 1018.9 |
| 20260503025527 | 8 | 0 | 0.0 | 1.6 | 0.00 | 0.00 | 0.00 | 63 | 1018.9 |
| 20260503025031 | 8 | 0 | 0.0 | 1.6 | 0.00 | 0.00 | 0.00 | 62 | 1019.0 |
| 20260503024546 | 8 | 0 | 0.0 | 3.2 | 0.00 | 0.00 | 0.00 | 64 | 1018.9 |
| 20260503024031 | 9 | 0 | 0.0 | 3.2 | 0.00 | 0.00 | 0.00 | 62 | 1018.8 |
| 20260503023528 | 9 | 32 | 0.0 | 4.8 | 0.00 | 0.00 | 0.00 | 61 | 1018.8 |
| 20260503023043 | 9 | 74 | 0.0 | 4.8 | 0.00 | 0.00 | 0.00 | 61 | 1018.7 |
| 20260503022528 | 9 | 50 | 0.0 | 4.8 | 0.00 | 0.00 | 0.00 | 63 | 1018.6 |
| 20260503022029 | 9 | 0 | 0.0 | 3.2 | 0.00 | 0.00 | 0.00 | 62 | 1018.7 |
| 20260503021543 | 10 | 0 | 0.0 | 3.2 | 0.00 | 0.00 | 0.00 | 62 | 1018.6 |
| 20260503021028 | 10 | 0 | 0.0 | 4.8 | 0.00 | 0.00 | 0.00 | 63 | 1018.4 |
| 20260503020530 | 10 | 73 | 0.0 | 4.8 | 0.00 | 0.00 | 0.00 | 62 | 1018.4 |
| 20260503020047 | 10 | 52 | 0.0 | 4.8 | 0.00 | 0.00 | 0.00 | 61 | 1018.3 |
| 20260503015527 | 10 | 0 | 0.0 | 4.8 | 0.00 | 0.00 | 0.00 | 63 | 1018.1 |
| 20260503015027 | 10 | 81 | 0.0 | 1.6 | 0.00 | 0.00 | 0.00 | 64 | 1018.1 |
| 20260503014549 | 10 | 75 | 0.0 | 3.2 | 0.00 | 0.00 | 0.00 | 63 | 1018.1 |
| 20260503014028 | 10 | 0 | 0.0 | 3.2 | 0.00 | 0.00 | 0.00 | 67 | 1018.0 |
| 20260503013528 | 9 | 29 | 0.0 | 3.2 | 0.00 | 0.00 | 0.00 | 66 | 1017.9 |
| 20260503013045 | 9 | 0 | 0.0 | 0.0 | 0.00 | 0.00 | 0.00 | 72 | 1017.9 |
| 20260503012531 | 9 | 0 | 0.0 | 0.0 | 0.00 | 0.00 | 0.00 | 71 | 1017.8 |
| 20260503012030 | 9 | 0 | 0.0 | 0.0 | 0.00 | 0.00 | 0.00 | 70 | 1017.8 |
| 20260503011541 | 9 | 0 | 0.0 | 0.0 | 0.00 | 0.00 | 0.00 | 70 | 1017.6 |
| 20260503011030 | 10 | 0 | 0.0 | 0.0 | 0.00 | 0.00 | 0.00 | 72 | 1017.6 |
| 20260503010529 | 10 | 0 | 0.0 | 0.0 | 0.00 | 0.00 | 0.00 | 72 | 1017.5 |
| 20260503010046 | 10 | 0 | 0.0 | 0.0 | 0.00 | 0.00 | 0.00 | 70 | 1017.5 |
| 20260503005528 | 10 | 0 | 0.0 | 0.0 | 0.00 | 0.00 | 0.00 | 73 | 1017.5 |
| 20260503005027 | 10 | 0 | 0.0 | 0.0 | 0.00 | 0.00 | 0.00 | 70 | 1017.5 |
| 20260503004546 | 10 | 0 | 0.0 | 0.0 | 0.00 | 0.00 | 0.00 | 69 | 1017.5 |
| 20260503004032 | 10 | 0 | 0.0 | 0.0 | 0.00 | 0.00 | 0.00 | 68 | 1017.4 |